This is the latest recevied weather packets stored in our database for station/object SP6PWT-13. If no packets are shown the sender has not sent any weather packets the latest 1 day(s).
| Time | Temp. | Humidity | Pressure | Rain* | Wind** | Luminosity | Snow |
|---|---|---|---|---|---|---|---|
| 1777985106 | 26.11° C | 34% | 989.9 hPa | 0 mm | 1.79 m/s, 208° | 553 W/m² | - |
| 1777984805 | 25.56° C | 34% | 990 hPa | 0 mm | 1.34 m/s, 216° | 565 W/m² | - |
| 1777984505 | 25.56° C | 35% | 989.9 hPa | 0 mm | 1.34 m/s, 328° | 572 W/m² | - |
| 1777984205 | 26.11° C | 34% | 990.2 hPa | 0 mm | 2.24 m/s, 27° | 553 W/m² | - |
| 1777983904 | 25.56° C | 34% | 990.2 hPa | 0 mm | 0.45 m/s, 49° | 586 W/m² | - |
| 1777983603 | 26.11° C | 34% | 990.3 hPa | 0 mm | 1.79 m/s, 280° | 587 W/m² | - |
| 1777983302 | 25.56° C | 35% | 990.4 hPa | 0 mm | 1.34 m/s, 163° | 586 W/m² | - |
| 1777983002 | 26.11° C | 34% | 990.3 hPa | 0 mm | 1.79 m/s, 303° | 598 W/m² | - |
| 1777982701 | 25.56° C | 34% | 990.4 hPa | 0 mm | 1.79 m/s, 349° | 602 W/m² | - |
| 1777982401 | 25.56° C | 34% | 990.3 hPa | 0 mm | 0.89 m/s, 16° | 613 W/m² | - |
| 1777982101 | 25.56° C | 34% | 990.4 hPa | 0 mm | 0.45 m/s, 45° | 612 W/m² | - |
| 1777981800 | 25.56° C | 34% | 990.4 hPa | 0 mm | 0 m/s | 628 W/m² | - |
| 1777981499 | 25° C | 35% | 990.5 hPa | 0 mm | 0.45 m/s, 183° | 477 W/m² | - |
| 1777981198 | 25° C | 35% | 990.6 hPa | 0 mm | 1.34 m/s, 188° | 674 W/m² | - |
| 1777980897 | 24.44° C | 37% | 990.6 hPa | 0 mm | 0.89 m/s, 125° | 440 W/m² | - |
| 1777980596 | 24.44° C | 37% | 990.6 hPa | 0 mm | 1.34 m/s, 113° | 419 W/m² | - |
| 1777980296 | 25° C | 37% | 990.6 hPa | 0 mm | 3.13 m/s, 136° | 447 W/m² | - |
| 1777979995 | 25° C | 36% | 990.5 hPa | 0 mm | 1.34 m/s, 182° | 531 W/m² | - |
| 1777979685 | 24.44° C | 37% | 990.6 hPa | 0 mm | 0.45 m/s, 332° | 558 W/m² | - |
| 1777979384 | 24.44° C | 38% | 990.7 hPa | 0 mm | 3.13 m/s, 147° | 688 W/m² | - |
| 1777979073 | 24.44° C | 38% | 990.7 hPa | 0 mm | 2.24 m/s, 128° | 606 W/m² | - |
| 1777978772 | 24.44° C | 39% | 990.7 hPa | 0 mm | 1.79 m/s, 131° | 684 W/m² | - |
| 1777978472 | 25° C | 37% | 990.8 hPa | 0 mm | 0.89 m/s, 221° | 682 W/m² | - |
| 1777978160 | 25° C | 38% | 991 hPa | 0 mm | 0.45 m/s, 150° | 676 W/m² | - |
| 1777977860 | 25.56° C | 37% | 990.9 hPa | 0 mm | 0.45 m/s, 186° | 675 W/m² | - |
* Rain latest hour (hover to see other rain measurements)
** Current wind speed in m/s (hover to see current wind gust speed)